This is the latest recevied weather packets stored in our database for station/object K5OLV. If no packets are shown the sender has not sent any weather packets the latest 10 day(s).
| Time | Temp. | Humidity | Pressure | Rain* | Wind** | Luminosity | Snow |
|---|---|---|---|---|---|---|---|
| 1777636990 | 9.44° C | 75% | 1011.9 hPa | 0 mm | - | 44 W/m² | - |
| 1777636686 | 9.44° C | 76% | 1011.5 hPa | 0 mm | - | 46 W/m² | - |
| 1777636383 | 9.44° C | 75% | 1011.4 hPa | 0 mm | - | 26 W/m² | - |
| 1777636083 | 9.44° C | 75% | 1011.4 hPa | 0 mm | - | 48 W/m² | - |
| 1777635779 | 8.89° C | 76% | 1011.3 hPa | 0 mm | - | 61 W/m² | - |
| 1777635475 | 8.89° C | 78% | 1011.2 hPa | 0 mm | - | 43 W/m² | - |
| 1777635172 | 8.89° C | 77% | 1011 hPa | 0 mm | - | 30 W/m² | - |
| 1777634868 | 8.89° C | 77% | 1010.9 hPa | 0 mm | - | 23 W/m² | - |
| 1777634566 | 8.89° C | 77% | 1011 hPa | 0 mm | - | 17 W/m² | - |
| 1777634263 | 8.89° C | 77% | 1010.8 hPa | 0 mm | - | 16 W/m² | - |
| 1777633959 | 8.89° C | 77% | 1010.9 hPa | 0 mm | - | 13 W/m² | - |
| 1777633656 | 8.89° C | 76% | 1010.7 hPa | 0 mm | - | 9 W/m² | - |
| 1777633354 | 8.89° C | 77% | 1010.7 hPa | 0 mm | - | 5 W/m² | - |
| 1777633052 | 8.89° C | 76% | 1010.8 hPa | 0 mm | - | 3 W/m² | - |
| 1777632748 | 8.89° C | 75% | 1010.7 hPa | 0 mm | - | 1 W/m² | - |
| 1777632444 | 8.89° C | 77% | 1010.6 hPa | 0 mm | - | 0 W/m² | - |
| 1777632141 | 8.89° C | 77% | 1010.8 hPa | 0 mm | - | 0 W/m² | - |
| 1777631839 | 8.89° C | 77% | 1010.6 hPa | 0 mm | - | 0 W/m² | - |
| 1777631537 | 8.89° C | 76% | 1010.4 hPa | 0 mm | - | 0 W/m² | - |
| 1777631234 | 8.89° C | 77% | 1010.6 hPa | 0 mm | - | 0 W/m² | - |
| 1777630931 | 8.89° C | 76% | 1010.7 hPa | 0 mm | - | 0 W/m² | - |
| 1777630626 | 8.89° C | 75% | 1010.7 hPa | 0 mm | - | 0 W/m² | - |
| 1777630324 | 9.44° C | 75% | 1010.6 hPa | 0 mm | - | 0 W/m² | - |
| 1777630021 | 9.44° C | 76% | 1010.6 hPa | 0 mm | - | 0 W/m² | - |
| 1777629718 | 9.44° C | 74% | 1010.6 hPa | 0 mm | - | 0 W/m² | - |
* Rain latest hour (hover to see other rain measurements)
** Current wind speed in m/s (hover to see current wind gust speed)